Tiempo cada hora Bolshie Shidy

Hoy, 31 Julio, Sábado

Tiempo Temperatura Precipitaciones Viento Presión Humedad
00:00 +20°C° 0 mm 1 mps 745 mmHg 91%
01:00 +19°C° 0 mm 1 mps 745 mmHg 92%
02:00 +19°C° 0 mm 1 mps 745 mmHg 93%
03:00 +18°C° 0 mm 1 mps 745 mmHg 94%
04:00 +18°C° 0 mm 1 mps 745 mmHg 94%
05:00 +19°C° 0 mm 1 mps 746 mmHg 93%
06:00 +19°C° 0 mm 2 mps 746 mmHg 92%
07:00 +19°C° 0 mm 2 mps 746 mmHg 91%
08:00 +21°C° 0 mm 2 mps 746 mmHg 84%
09:00 +22°C° 0 mm 3 mps 746 mmHg 77%
10:00 +25°C° 0 mm 3 mps 746 mmHg 70%
11:00 +25°C° 0 mm 3 mps 745 mmHg 68%
12:00 +26°C° 0 mm 3 mps 745 mmHg 65%
13:00 +27°C° 0 mm 3 mps 744 mmHg 63%
14:00 +27°C° 0 mm 2 mps 744 mmHg 61%
15:00 +27°C° 0 mm 2 mps 743 mmHg 59%
16:00 +27°C° 0 mm 1 mps 743 mmHg 57%
17:00 +27°C° 0 mm 2 mps 743 mmHg 59%
18:00 +27°C° 0 mm 2 mps 743 mmHg 61%
19:00 +27°C° 0 mm 3 mps 743 mmHg 62%
20:00 +25°C° 0.1 mm 3 mps 743 mmHg 70%
21:00 +24°C° 0.1 mm 2 mps 744 mmHg 77%
22:00 +21°C° 0.1 mm 2 mps 744 mmHg 84%
23:00 +20°C° 0.4 mm 2 mps 745 mmHg 88%

Mañana, 1 Agosto, Domingo

Tiempo Temperatura Precipitaciones Viento Presión Humedad
00:00 +20°C° 0.4 mm 2 mps 745 mmHg 91%
01:00 +19°C° 0.4 mm 2 mps 746 mmHg 94%
02:00 +19°C° 0 mm 2 mps 746 mmHg 95%
03:00 +19°C° 0 mm 2 mps 746 mmHg 96%
04:00 +18°C° 0 mm 2 mps 746 mmHg 96%
05:00 +19°C° 0 mm 2 mps 746 mmHg 95%
06:00 +20°C° 0 mm 2 mps 747 mmHg 93%
07:00 +20°C° 0 mm 2 mps 747 mmHg 92%
08:00 +23°C° 0.4 mm 2 mps 747 mmHg 85%
09:00 +24°C° 0.4 mm 3 mps 747 mmHg 79%
10:00 +25°C° 0.4 mm 3 mps 748 mmHg 72%
11:00 +27°C° 0.1 mm 4 mps 747 mmHg 60%
12:00 +29°C° 0.1 mm 4 mps 747 mmHg 49%
13:00 +30°C° 0.1 mm 4 mps 747 mmHg 37%
14:00 +30°C° 0 mm 4 mps 747 mmHg 35%
15:00 +32°C° 0 mm 4 mps 747 mmHg 34%
16:00 +31°C° 0 mm 3 mps 747 mmHg 33%
17:00 +29°C° 0 mm 3 mps 748 mmHg 41%
18:00 +27°C° 0 mm 2 mps 748 mmHg 49%
19:00 +26°C° 0 mm 2 mps 748 mmHg 57%
20:00 +24°C° 0 mm 2 mps 748 mmHg 63%
21:00 +22°C° 0 mm 1 mps 749 mmHg 68%
22:00 +20°C° 0 mm 1 mps 749 mmHg 73%
23:00 +20°C° 0 mm 1 mps 749 mmHg 74%

Pasado mañana, 2 Agosto, Lunes

Tiempo Temperatura Precipitaciones Viento Presión Humedad
00:00 +20°C° 0 mm 1 mps 749 mmHg 75%
01:00 +17°C° 0 mm 0 mps 750 mmHg 76%
02:00 +17°C° 0 mm 0 mps 750 mmHg 77%
03:00 +16°C° 0 mm 0 mps 750 mmHg 79%
04:00 +16°C° 0 mm 0 mps 751 mmHg 81%
05:00 +17°C° 0 mm 0 mps 751 mmHg 76%
06:00 +21°C° 0 mm 1 mps 751 mmHg 72%
07:00 +22°C° 0 mm 1 mps 751 mmHg 67%
08:00 +24°C° 0 mm 1 mps 751 mmHg 61%
09:00 +26°C° 0 mm 1 mps 751 mmHg 54%
10:00 +28°C° 0 mm 2 mps 751 mmHg 47%
11:00 +29°C° 0 mm 2 mps 751 mmHg 43%
12:00 +30°C° 0 mm 2 mps 751 mmHg 39%
13:00 +31°C° 0 mm 2 mps 751 mmHg 35%
14:00 +31°C° 0 mm 2 mps 751 mmHg 35%
15:00 +32°C° 0 mm 2 mps 750 mmHg 34%
16:00 +32°C° 0 mm 2 mps 750 mmHg 33%
17:00 +31°C° 0 mm 1 mps 750 mmHg 39%
18:00 +29°C° 0 mm 1 mps 750 mmHg 46%
19:00 +28°C° 0 mm 1 mps 750 mmHg 53%
20:00 +26°C° 0 mm 1 mps 750 mmHg 55%
21:00 +24°C° 0 mm 1 mps 750 mmHg 57%
22:00 +23°C° 0 mm 1 mps 750 mmHg 60%
23:00 +22°C° 0 mm 1 mps 750 mmHg 62%

3 Agosto, Martes

Tiempo Temperatura Precipitaciones Viento Presión Humedad
00:00 +21°C° 0 mm 1 mps 750 mmHg 64%
01:00 +21°C° 0 mm 1 mps 750 mmHg 66%
02:00 +20°C° 0 mm 1 mps 750 mmHg 67%
03:00 +20°C° 0 mm 1 mps 750 mmHg 68%
04:00 +20°C° 0 mm 1 mps 750 mmHg 69%
05:00 +21°C° 0 mm 1 mps 750 mmHg 66%
06:00 +22°C° 0 mm 1 mps 751 mmHg 63%
07:00 +24°C° 0 mm 1 mps 751 mmHg 60%
08:00 +26°C° 0 mm 2 mps 751 mmHg 53%
09:00 +28°C° 0 mm 2 mps 751 mmHg 46%
10:00 +30°C° 0 mm 3 mps 751 mmHg 39%
11:00 +32°C° 0 mm 2 mps 750 mmHg 34%
12:00 +35°C° 0 mm 2 mps 750 mmHg 30%
13:00 +36°C° 0 mm 2 mps 750 mmHg 26%
14:00 +36°C° 0 mm 2 mps 749 mmHg 26%
15:00 +37°C° 0 mm 3 mps 749 mmHg 26%
16:00 +37°C° 0 mm 3 mps 748 mmHg 27%
17:00 +34°C° 0 mm 3 mps 748 mmHg 34%
18:00 +31°C° 0 mm 2 mps 748 mmHg 40%
19:00 +29°C° 0 mm 2 mps 748 mmHg 47%
20:00 +27°C° 0 mm 1 mps 749 mmHg 54%
21:00 +25°C° 0 mm 1 mps 749 mmHg 60%
22:00 +23°C° 0 mm 1 mps 749 mmHg 67%
23:00 +22°C° 0.1 mm 1 mps 749 mmHg 70%

4 Agosto, Miércoles

Tiempo Temperatura Precipitaciones Viento Presión Humedad
00:00 +20°C° 0.1 mm 2 mps 749 mmHg 74%
01:00 +20°C° 0.1 mm 2 mps 749 mmHg 77%
02:00 +19°C° 0 mm 2 mps 749 mmHg 78%
03:00 +19°C° 0 mm 2 mps 749 mmHg 78%
04:00 +19°C° 0 mm 2 mps 748 mmHg 78%
05:00 +20°C° 0 mm 2 mps 749 mmHg 76%
06:00 +21°C° 0 mm 2 mps 749 mmHg 73%
07:00 +23°C° 0 mm 2 mps 749 mmHg 70%
08:00 +26°C° 0 mm 2 mps 749 mmHg 59%
09:00 +29°C° 0 mm 2 mps 749 mmHg 48%
10:00 +33°C° 0 mm 3 mps 749 mmHg 37%
11:00 +34°C° 0 mm 3 mps 748 mmHg 33%
12:00 +36°C° 0 mm 3 mps 748 mmHg 29%
13:00 +38°C° 0 mm 3 mps 748 mmHg 24%
14:00 +35°C° 0.1 mm 5 mps 747 mmHg 34%
15:00 +32°C° 0.1 mm 6 mps 747 mmHg 43%
16:00 +27°C° 0.1 mm 7 mps 747 mmHg 53%
17:00 +27°C° 0 mm 6 mps 747 mmHg 52%
18:00 +27°C° 0 mm 4 mps 748 mmHg 52%
19:00 +27°C° 0 mm 2 mps 748 mmHg 51%
20:00 +26°C° 0 mm 2 mps 748 mmHg 53%
21:00 +25°C° 0 mm 2 mps 747 mmHg 56%
22:00 +24°C° 0 mm 2 mps 747 mmHg 58%
23:00 +23°C° 0 mm 1 mps 747 mmHg 59%

5 Agosto, Jueves

Tiempo Temperatura Precipitaciones Viento Presión Humedad
00:00 +23°C° 0 mm 1 mps 747 mmHg 59%
01:00 +20°C° 0 mm 0 mps 747 mmHg 60%
02:00 +20°C° 0 mm 0 mps 747 mmHg 62%
03:00 +21°C° 0 mm 1 mps 747 mmHg 64%
04:00 +21°C° 0 mm 1 mps 747 mmHg 65%
05:00 +21°C° 0.1 mm 1 mps 747 mmHg 68%
06:00 +22°C° 0.1 mm 1 mps 747 mmHg 71%
07:00 +22°C° 0.1 mm 1 mps 747 mmHg 74%
08:00 +24°C° 0.1 mm 1 mps 748 mmHg 69%
09:00 +25°C° 0.1 mm 1 mps 748 mmHg 63%
10:00 +25°C° 0.1 mm 0 mps 748 mmHg 58%
11:00 +28°C° 0 mm 1 mps 747 mmHg 54%
12:00 +29°C° 0 mm 1 mps 747 mmHg 50%
13:00 +30°C° 0 mm 2 mps 747 mmHg 46%
14:00 +30°C° 0 mm 3 mps 747 mmHg 48%
15:00 +30°C° 0 mm 3 mps 747 mmHg 50%
16:00 +29°C° 0 mm 4 mps 747 mmHg 52%
17:00 +28°C° 0.7 mm 4 mps 747 mmHg 63%
18:00 +26°C° 0.7 mm 4 mps 747 mmHg 73%
19:00 +23°C° 0.7 mm 4 mps 747 mmHg 83%
20:00 +22°C° 3.2 mm 4 mps 747 mmHg 87%
21:00 +21°C° 3.2 mm 4 mps 747 mmHg 92%
22:00 +20°C° 3.2 mm 4 mps 748 mmHg 96%
23:00 +19°C° 0.3 mm 3 mps 747 mmHg 96%
Mostrar más